User: anonymous   Login
Location: Grossmotten
(48.5500°N, 15.3833°E)
Time: 02:08:21
(UTC+00:00)
Language:

Cosmos 2237 - Orbit

View from above orbital plane
View from above orbital plane
View from above satellite
View from above satellite

Ground track
Ground track

The orbit data is extracted from the following two-line orbital elements,

1 22565U 93016A   20018.56187731 +.00000018 +00000-0 +36420-4 0  9996
2 22565 070.8230 215.1366 0006097 172.7622 187.3587 14.12380824382707
Epoch (UTC): 18 January 2020 13:29:06
Eccentricity: 0.0006097
inclination: 70.8230°
perigee height: 847 km
apogee height: 855 km
right ascension of ascending node: 215.1366°
argument of perigee: 172.7622°
revolutions per day: 14.12380824
mean anomaly at epoch: 187.3587°
orbit number at epoch: 38270

The dashed part of the orbit path shows where the satellite is in the earth's shadow,  

DLR